Location: Artiguedieu
(43.5000°N, 0.5454°E)
Time: 03:39:42
(UTC+00:00)

Tiros 1 - Visible Passes

Search period start: 26 July 2021 00:00
Search period end: 05 August 2021 00:00
Orbit: 630 x 663 km, 48.4° (Epoch: 25 July)

Date Brightness Start Highest point End Pass type
(mag) Time Alt. Az. Time Alt. Az. Time Alt. Az.
26 Jul 7.0 01:15:57 10° WNW 01:20:39 83° NNE 01:25:18 10° ESE visible
26 Jul 8.0 02:58:37 10° W 03:02:29 26° SW 03:06:20 10° SSE visible
26 Jul 7.1 20:34:21 10° WSW 20:39:06 84° SSE 20:43:50 10° ENE visible
26 Jul 8.1 22:17:00 10° W 22:21:35 48° N 22:26:07 10° ENE visible
26 Jul 7.7 23:59:41 10° WNW 00:04:18 55° NNE 00:05:04 48° NE visible
27 Jul 9.3 01:41:59 10° WNW 01:42:37 14° WNW 01:42:37 14° WNW visible
27 Jul 7.6 21:00:25 10° W 21:05:08 63° NNW 21:09:49 10° ENE visible
27 Jul 8.1 22:43:16 10° WNW 22:47:49 46° N 22:50:56 19° ENE visible
28 Jul 8.2 00:25:41 10° WNW 00:28:31 36° WNW 00:28:31 36° WNW visible
28 Jul 8.1 21:26:41 10° W 21:31:18 49° N 21:35:52 10° ENE visible
28 Jul 7.8 23:09:24 10° WNW 23:14:01 53° NNE 23:14:48 47° NE visible
29 Jul 9.4 00:51:42 10° WNW 00:52:24 14° WNW 00:52:24 14° WNW visible
29 Jul 7.6 20:10:07 10° WSW 20:14:51 66° NNW 20:19:34 10° ENE visible
29 Jul 8.1 21:52:57 10° WNW 21:57:31 46° N 22:01:16 14° ENE visible
29 Jul 7.9 23:35:25 10° WNW 23:38:52 48° NW 23:38:52 48° NW visible
30 Jul 8.1 20:36:22 10° W 20:41:00 50° N 20:45:36 10° ENE visible
30 Jul 7.8 22:19:06 10° WNW 22:23:45 52° NNE 22:25:26 34° ENE visible
31 Jul 9.0 00:01:26 10° WNW 00:03:03 21° WNW 00:03:03 21° WNW visible
31 Jul 8.1 21:02:39 10° WNW 21:07:14 45° N 21:11:46 10° ENE visible
31 Jul 7.3 22:45:08 10° WNW 22:49:40 71° N 22:49:40 71° N visible
01 Aug 8.0 19:46:03 10° W 19:50:43 51° N 19:55:20 10° ENE visible
01 Aug 7.9 21:28:49 10° WNW 21:33:27 51° N 21:36:20 21° ENE visible
01 Aug 8.3 23:11:08 10° WNW 23:13:58 35° WNW 23:13:58 35° WNW visible
02 Aug 8.1 20:12:20 10° WNW 20:16:56 46° N 20:21:29 10° ENE visible
02 Aug 7.3 21:54:51 10° WNW 21:59:35 69° NNE 22:00:41 50° E visible
02 Aug 9.4 23:37:18 10° WNW 23:38:18 15° W 23:38:18 15° W visible
03 Aug 7.9 20:38:31 10° WNW 20:43:09 50° N 20:47:26 12° E visible
03 Aug 7.3 22:20:51 10° WNW 22:25:03 66° W 22:25:03 66° W visible
04 Aug 7.4 21:04:34 10° WNW 21:09:19 66° NNE 21:11:50 27° E visible
04 Aug 8.7 22:46:59 10° WNW 22:49:28 27° W 22:49:28 27° W visible
